Regional Weather Roundup
Issued by NWS

Home | Current Version | Previous Version | Text Only | Print | Product List | Glossary Off
Versions: 1 2 3 4 5 6 7 8 9 10 11 12 13 14 15 16 17 18 19 20 21 22 23 24 25 26 27 28 29 30 31 32 33 34 35 36 37 38 39 40 41 42 43 44 45 46 47 48 49 50

000
ASUS45 KABQ 210201
RWRNM
WEATHER ROUNDUP FOR NEW MEXICO
NATIONAL WEATHER SERVICE ALBUQUERQUE NM
800 PM MDT SAT SEP 20 2014

NOTE: "FAIR" MEANS FEW OR NO CLOUDS BELOW 12,000 FEET AGL WITH NO
       SIGNIFICANT WEATHER OR OBSTRUCTIONS TO VISION.

      THIS PRODUCT IS RELEASED AS TWO VERSIONS.  ONE VERSION NEAR
      THE TOP OF THE HOUR CONTAINING PRELIMINARY DATA FROM ALBUQUERQUE
      AND OTHER STATIONS.  A FINAL VERSION WITH ADDITIONAL DATA IS
      ISSUED ABOUT 10 MINUTES AFTER THE HOUR.

NMZ501-503-504-510>518-210300-
NORTHWEST PLATEAU/NORTHCENTRAL MOUNTAINS

CITY           SKY/WX    TMP DP  RH WIND       PRES   REMARKS
FARMINGTON     CLEAR     80  40  23 E7        30.07R
LOS ALAMOS     MOCLDY    73  43  35 S9        30.29R
SANTA FE       PTCLDY    75  49  39 SE21      30.20R
TAOS           PTCLDY    70  43  37 SE16G22   30.30R
ANGEL FIRE     MOCLDY    61  44  54 CALM      30.45R

$$
NMZ402-403-502-505>509-210300-
WESTCENTRAL MOUNTAINS/SOUTHWEST MOUNTAINS

CITY           SKY/WX    TMP DP  RH WIND       PRES   REMARKS
GALLUP         MOCLDY    73  40  30 CALM      30.17R
GRANTS         CLEAR     72  46  40 S8        30.21R
SILVER CITY    PTCLDY    73  64  73 S3        30.14R

$$
NMZ407-409-411-412-210300-
SOUTHERN DESERTS

CITY           SKY/WX    TMP DP  RH WIND       PRES   REMARKS
LORDSBURG      FAIR      77  64  65 MISG      30.03S
DEMING         PTCLDY    80  63  55 SE5       30.04R
LAS CRUCES     PTCLDY    77  63  60 SE6       30.07R
HOLLOMAN AFB   PTCLDY    77  67  70 SE2       30.04R
ALAMOGORDO     PTCLDY    73  66  78 E7        30.06R
T OR C         PTCLDY    78  58  49 SE8       30.07R

$$
NMZ519>523-210300-
CENTRAL VALLEYS/CENTRAL HIGHLANDS

CITY           SKY/WX    TMP DP  RH WIND       PRES   REMARKS
ALBUQUERQUE    MOCLDY    79  49  34 SE13      30.13R
DOUBLE EAGLE   CLEAR     75  46  35 SE13      30.18R
CLINES CORNERS CLEAR     66  52  60 E12       30.28R
BELEN          FAIR      77  48  36 SE16      30.12R
SOCORRO        FAIR      78  55  43 E12       30.09R

$$
NMZ524>526-539-540-210300-
SOUTHCENTRAL MOUNTAINS

CITY           SKY/WX    TMP DP  RH WIND       PRES   REMARKS
RUIDOSO        NOT AVBL

$$
NMZ527>531-210300-
NORTHEAST HIGHLANDS/NORTHEAST PLAINS

CITY           SKY/WX    TMP DP  RH WIND       PRES   REMARKS
LAS VEGAS      PTCLDY    64  52  64 SE9       30.31R
RATON          PTCLDY    69  44  40 NE7       30.27R
CLAYTON        CLEAR     69  57  65 SE5       30.18R

$$
NMZ532>537-210300-
EASTCENTRAL PLAINS

CITY           SKY/WX    TMP DP  RH WIND       PRES   REMARKS
TUCUMCARI      CLEAR     74  58  57 E6        30.10R
CANNON AFB     PTCLDY    70  70 100 SE7       30.14R
CLOVIS AIRPORT   N/A     70  64  83 SE8       30.15R

$$
NMZ028-029-538-210300-
SOUTHEAST PLAINS

CITY           SKY/WX    TMP DP  RH WIND       PRES   REMARKS
ROSWELL        CLOUDY    77  68  73 NE5       30.06R
CARLSBAD       CLOUDY    77  77 100 CALM      30.02R
HOBBS          CLOUDY    72  72 100 E15       30.08R


$$



USA.gov is the U.S. government's official web portal to all federal, state and local government web resources and services.